Estación Meteorológica Peña el Pijo (Robertgarden) [ 02/19/20 15:24:16 CET ]

Fecha Hora Presion(HPa) Temp (°C) Humedad % Rocio (°C) Viento ( m/s) Direccion Lluvia 1Hora(mm) Lluvia 24H(mm) LLuvia Total(mm)
2020-Jan-14 01:09:28 1010.900 - - - - N     39.88
2020-Jan-14 02:09:25 1010.600 - - - - N     39.88
2020-Jan-14 03:12:30 1010.000 - - - - N     39.88
2020-Jan-14 04:13:45 1010.000 - - - - N     39.88
2020-Jan-14 05:09:26 1009.600 - - - - N     39.88
2020-Jan-14 06:09:31 1009.600 - - - - N     39.88
2020-Jan-14 07:09:21 1010.000 - - - - N     39.88
2020-Jan-14 08:08:59 1010.000 - - - - N     39.88
2020-Jan-14 09:08:44 1010.200 - - - - N     39.88
2020-Jan-14 10:09:00 1010.600 - - - - N     39.88
2020-Jan-14 11:09:06 1010.600 - - - - N     39.88
2020-Jan-14 12:09:29 1010.000 - - - - N     39.88
2020-Jan-14 13:09:11 1009.300 - - - - N     39.88
2020-Jan-14 14:08:50 1008.500 - - - - N     39.88
2020-Jan-14 15:09:20 1008.300 - - - - N     39.88
2020-Jan-14 16:09:23 1008.500 - - - - N     39.88
2020-Jan-14 17:09:07 1008.900 - - - - N     39.88
2020-Jan-14 18:09:40 1009.300 - - - - N     39.88
2020-Jan-14 19:08:44 1010.300 - - - - N     39.88
2020-Jan-14 20:09:08 1010.800 - - - - N     39.88
2020-Jan-14 21:09:07 1011.000 - - - - N     39.88
2020-Jan-14 22:09:02 1011.000 - - - - N     39.88
2020-Jan-14 23:09:11 1011.500 - - - - N     39.88

Temperatura Máxima:    Temperatura Mínima:
Presión Máxima:1011.500 Hpa    Presión Mínima:1008.300 Hpa


Volver